Temp
14 16 17 18 18 18 19 19 20 20 21 22 22 23 23 24 24 24 26 25 24 25 25 23 24 23 24 24 23 24 27 27 27 26 28 23 23 21 21 23 20 21 22 18 15
15 17 18 18 19 19 19 19 20 20 21 22 23 23 24 24 25 27 24 24 25 25 24 26 27 25 26 24 24 26 26 27 26 26 26 24 23 24 21 22 21 21 19 13 13
16 17 18 19 19 19 19 20 21 21 22 22 23 24 25 25 27 27 25 25 25 25 25 24 24 26 26 24 24 24 26 26 26 24 23 23 21 22 22 24 24 24 23 16 14
17 17 18 19 19 19 20 20 21 21 22 22 23 24 25 25 26 25 25 25 25 24 24 25 26 26 25 25 23 24 25 23 23 21 21 22 22 22 22 25 25 24 24 18 16
17 17 18 18 19 20 20 21 21 22 22 22 23 24 25 28 27 25 25 25 25 24 24 26 26 26 25 24 23 23 24 22 22 21 21 21 21 22 23 23 24 21 19 19 18
18 18 18 19 20 20 21 21 22 22 22 22 23 24 25 27 25 24 24 24 24 24 23 24 26 25 24 24 23 22 22 23 22 22 21 20 22 19 25 23 24 22 20 20 19
18 18 18 19 20 20 22 22 22 22 22 23 23 23 25 27 24 24 24 24 24 23 24 22 23 24 23 23 21 21 23 25 24 22 22 20 22 20 25 22 23 23 22 21 20
18 18 18 19 20 21 22 22 22 23 23 23 23 23 26 24 24 24 24 23 23 23 22 21 21 22 22 21 22 23 23 25 23 21 21 20 25 27 26 24 23 24 24 22 21
18 19 19 20 20 21 22 22 23 23 23 23 22 24 26 23 23 23 23 24 22 22 21 20 22 22 21 24 25 24 26 25 25 21 21 21 25 27 24 22 24 26 26 25 23
18 19 19 19 20 22 22 23 22 22 22 22 22 25 24 24 23 23 23 22 24 23 23 23 23 24 23 25 25 25 25 26 24 23 20 22 22 25 26 25 24 25 26 26 25
18 19 19 20 21 23 22 22 23 24 22 25 25 24 23 23 23 23 22 23 24 24 24 22 24 25 27 25 24 23 23 24 25 24 20 23 24 24 26 26 25 25 25 25 26
18 19 20 21 22 22 22 23 21 21 24 20 21 22 21 22 24 23 22 24 24 25 22 23 24 26 22 21 21 22 22 24 24 20 19 23 22 24 26 26 25 26 25 25 25
19 20 21 21 21 21 20 19 20 20 23 22 21 22 23 22 24 24 23 23 24 23 23 24 25 20 21 22 21 23 22 23 22 21 22 21 25 26 29 25 24 24 24 23 22
19 20 20 21 21 20 19 19 19 20 23 23 22 22 22 22 23 21 21 23 23 23 22 23 21 21 21 22 22 22 21 20 20 21 23 21 23 25 27 27 28 27 26 25 23
19 19 20 21 21 20 19 19 20 20 24 22 22 21 22 23 22 22 20 22 23 23 22 24 22 21 21 22 21 22 19 20 19 21 20 21 21 27 25 28 28 27 26 25 24
19 20 20 20 20 19 19 20 20 24 24 22 22 22 22 21 22 21 22 22 21 21 21 22 19 21 21 19 19 18 20 19 18 20 22 21 21 26 27 26 26 27 27 25 24
19 20 20 20 20 20 20 20 23 23 22 22 22 21 22 22 22 22 22 22 23 23 23 22 21 19 19 20 19 20 22 24 24 24 24 19 20 24 26 26 25 25 25 25 25
19 19 19 19 19 19 19 23 22 22 22 21 21 21 22 22 22 21 21 23 20 21 22 22 24 21 19 20 21 20 21 23 22 24 24 18 21 25 25 25 25 23 23 25 24
18 18 18 18 19 19 22 22 23 22 21 22 22 22 22 21 21 22 22 23 21 21 23 23 22 18 18 18 19 19 21 19 21 19 19 23 23 24 26 27 27 25 24 23 23
18 17 16 17 18 19 22 20 21 20 20 21 23 22 23 23 22 22 23 21 21 19 19 21 22 19 18 18 17 19 19 21 21 21 21 23 22 24 26 26 26 24 23 23 22
18 20 16 17 18 21 21 21 20 19 20 22 22 22 22 22 22 22 23 21 20 19 19 21 21 21 18 19 21 18 20 19 19 20 22 22 24 25 24 25 22 23 23 22 21
15 20 16 17 20 17 20 19 18 20 19 20 20 21 22 21 21 21 22 22 18 19 20 19 20 21 22 17 17 18 20 21 21 21 21 21 20 24 25 24 23 22 22 21 20
17 16 15 16 20 19 17 18 18 19 20 19 20 20 19 21 21 21 20 18 17 18 20 19 20 20 22 18 17 18 18 19 19 18 19 20 22 24 24 25 23 22 22 21 19
16 19 17 16 15 19 18 19 19 17 19 19 19 19 19 19 19 20 20 18 17 18 15 17 20 20 21 22 22 20 19 19 20 19 21 21 22 24 24 24 22 21 20 20 19
14 17 15 18 17 17 18 18 18 19 18 18 18 19 19 19 19 19 18 18 16 15 16 18 18 20 20 20 20 19 19 20 19 19 20 21 21 22 22 21 20 19 20 18 18
15 16 13 15 14 16 15 18 18 18 18 18 18 17 18 19 20 19 18 18 19 16 16 15 18 17 17 18 18 17 18 18 19 19 19 20 19 21 20 19 18 19 19 17 17
9 10 15 12 14 17 18 18 17 17 16 16 17 17 17 17 17 17 17 18 18 18 18 17 17 17 17 18 16 17 19 18 18 19 19 18 20 18 17 17 17 17 17 17 17
Height
838 837 838 838 840 840 840 839 836 837 835 834 833 833 832 830 829 830 830 832 830 830 829 829 830 830 830 831 832 830 833 833 828 832 822 831 833 832 832 829 834 831 828 834 838
837 835 837 836 838 839 840 839 836 835 834 833 831 832 831 829 829 829 830 829 828 829 828 828 828 829 827 831 832 829 834 826 821 821 823 827 829 826 831 827 828 827 831 836 838
835 833 836 836 836 838 839 838 836 834 833 832 831 830 830 828 828 828 828 828 828 828 827 827 828 827 829 831 832 831 829 823 822 824 827 826 830 827 825 820 814 813 816 831 835
832 833 834 835 836 838 837 837 835 833 832 833 832 830 829 828 839 828 828 827 827 827 827 827 827 827 830 832 832 834 825 828 826 829 829 827 823 822 819 806 806 808 810 822 826
831 833 832 835 837 836 835 835 833 832 831 832 831 829 828 827 827 827 827 827 826 827 826 825 826 827 830 830 833 831 826 829 827 830 828 827 824 820 808 805 805 810 812 814 817
830 832 831 836 836 834 834 832 832 831 831 832 830 829 828 832 826 827 827 827 826 827 826 825 823 825 829 830 832 831 829 825 824 824 826 828 818 825 794 797 798 803 805 806 808
830 831 832 835 833 833 831 830 830 829 831 830 830 829 827 826 826 826 825 826 826 826 826 826 826 826 828 833 833 832 829 817 817 821 822 825 818 815 789 796 795 794 795 795 797
830 832 833 834 832 829 830 829 828 828 829 829 828 828 824 824 825 825 825 826 825 826 827 827 827 829 830 834 831 829 828 822 818 822 822 825 803 785 782 788 787 784 783 785 787
831 830 831 830 829 830 828 826 826 827 827 828 829 826 824 824 825 824 824 826 826 826 827 828 828 830 833 828 824 826 821 818 814 819 820 822 797 780 784 787 779 772 770 773 776
829 828 829 829 829 826 824 824 826 826 826 827 827 828 823 824 823 823 824 824 824 826 827 828 827 826 829 825 829 825 821 814 819 816 822 816 800 778 771 774 770 766 761 760 763
829 829 828 827 825 823 825 825 828 826 824 819 820 820 821 824 823 823 823 824 826 822 826 829 829 824 814 818 819 825 826 821 808 808 823 806 791 775 760 763 760 757 757 752 749
828 827 826 824 824 823 824 821 823 825 822 821 822 821 820 823 823 821 824 824 824 825 827 831 825 811 824 827 829 828 827 816 807 821 824 802 791 770 758 754 753 750 748 747 747
826 824 824 824 823 823 822 821 823 822 823 821 820 819 820 823 821 821 822 821 823 827 825 826 818 826 827 826 829 822 823 816 821 818 810 810 779 765 746 754 752 750 748 749 748
824 825 824 822 825 821 822 823 822 819 826 824 821 819 821 821 824 822 821 822 824 825 826 824 823 826 827 825 824 826 820 825 826 822 813 812 803 770 752 749 744 743 743 743 744
825 823 822 821 820 822 823 822 821 820 838 824 821 820 821 822 823 821 822 821 823 821 828 818 824 827 827 821 823 820 826 825 826 822 825 812 819 766 761 750 745 744 745 746 744
821 821 820 820 820 822 821 820 821 829 836 826 821 823 823 822 822 822 821 821 823 825 826 821 825 824 820 826 827 828 824 827 828 821 818 811 814 771 760 759 752 744 744 745 745
819 819 820 820 820 819 819 822 832 834 824 826 823 823 824 823 822 823 824 824 822 827 822 820 824 825 827 827 827 824 818 808 808 806 801 819 820 775 753 754 754 753 748 749 746
817 818 818 819 819 819 821 823 839 827 823 821 823 825 826 824 825 825 826 822 826 826 826 827 818 823 825 824 824 825 822 817 828 809 801 825 809 769 754 751 750 756 753 747 745
816 817 818 818 819 820 821 830 821 822 820 822 824 826 825 827 827 824 822 821 822 822 824 824 823 827 828 826 828 828 823 826 820 823 825 791 784 765 745 743 741 747 748 748 745
816 816 818 819 819 820 822 827 821 820 819 822 824 823 824 823 826 823 817 819 823 826 825 823 826 827 829 829 831 824 826 822 820 821 812 785 789 776 752 746 745 752 749 746 745
815 815 818 818 819 819 824 821 820 817 819 820 820 822 821 823 824 823 817 821 820 825 825 822 826 822 828 822 813 829 823 826 825 818 804 794 775 755 756 750 759 756 752 749 746
813 816 816 816 821 827 820 819 818 816 818 819 820 818 820 821 823 823 819 816 821 821 824 827 824 823 813 823 825 821 815 813 811 804 804 797 784 749 747 751 754 756 753 752 750
813 817 817 817 819 819 820 819 818 817 815 818 818 819 820 820 825 820 821 823 823 823 822 825 822 822 807 823 825 820 817 812 811 815 800 796 769 744 747 745 750 753 752 751 750
814 814 817 817 820 812 818 816 816 816 815 816 818 819 822 822 820 820 820 822 824 823 828 825 819 816 811 802 801 809 808 809 804 802 776 776 752 748 745 745 750 752 752 751 749
813 809 812 811 812 815 816 816 816 817 817 817 819 818 818 820 822 823 823 822 825 828 829 826 822 812 811 807 805 804 802 799 799 789 788 754 762 750 748 752 754 754 751 751 748
810 811 816 814 817 816 818 813 813 813 814 816 818 818 818 818 814 818 821 821 818 827 827 832 819 822 815 808 807 806 799 790 784 781 775 765 765 753 757 760 759 755 751 752 748
813 813 809 820 816 812 808 808 811 812 816 815 815 816 820 818 818 819 819 818 816 818 818 824 821 817 805 802 811 800 776 779 775 768 770 774 758 764 765 764 761 757 754 750 746
Wind_Speed
9 7 6 5 5 5 4 2 1 3 4 4 5 5 5 2 5 3 4 2 4 6 1 3 2 3 2 2 1 1 5 10 13 11 13 4 7 4 1 8 6 9 5 5 15
9 6 6 5 5 5 4 2 2 3 4 4 4 6 7 3 5 5 2 6 6 2 1 4 4 4 2 2 1 4 5 9 3 5 7 4 9 4 6 11 12 13 9 8 18
8 6 6 6 7 6 4 3 2 3 4 5 5 6 5 1 5 3 2 6 5 2 1 2 2 3 3 2 3 2 8 3 5 6 5 6 5 6 8 12 14 16 17 16 20
6 6 6 7 7 5 3 3 2 3 5 5 6 6 3 1 2 3 1 4 4 1 2 2 2 3 3 4 2 6 6 5 3 2 3 7 4 7 17 19 5 11 9 22 21
6 6 7 7 6 4 3 3 3 4 5 5 5 6 1 2 0 3 1 2 3 1 2 1 5 3 6 2 3 7 5 4 5 6 8 7 13 14 18 17 16 7 10 18 20
6 7 7 7 6 4 4 2 4 5 5 5 4 3 1 7 3 2 1 0 3 1 2 0 1 1 1 2 5 1 7 11 7 7 7 7 9 4 11 7 17 18 17 17 20
7 7 7 7 6 6 3 3 4 5 6 4 3 2 2 4 3 1 0 1 2 1 1 2 5 2 3 3 1 4 9 9 9 4 4 3 10 14 20 9 12 16 18 20 21
6 6 7 7 6 4 4 5 6 7 6 5 3 2 4 2 3 2 1 2 1 2 4 5 4 5 1 2 3 5 4 5 4 5 2 4 17 13 7 11 17 17 17 18 22
6 5 5 5 6 6 5 7 8 6 5 5 3 3 3 1 2 3 3 3 4 4 5 4 2 1 3 4 6 3 9 10 10 5 2 7 20 14 7 9 17 18 17 18 20
5 4 5 6 6 5 6 7 5 3 4 4 2 3 3 2 2 3 3 4 2 5 3 2 2 4 4 5 7 9 13 11 12 0 7 12 26 27 22 20 24 23 22 21 21
3 4 5 5 5 4 5 3 4 4 4 4 2 0 1 1 2 2 3 4 3 4 5 1 6 10 11 7 9 9 11 15 18 5 6 14 23 27 28 20 23 22 21 22 24
4 4 4 4 5 2 3 2 2 1 3 0 3 4 3 2 3 4 3 5 4 6 3 5 12 9 2 2 7 9 11 16 11 2 5 14 24 27 23 14 13 16 16 16 17
4 3 4 5 3 1 4 4 2 1 1 1 2 2 1 5 3 3 4 2 6 6 8 11 4 3 2 5 7 9 11 11 9 8 10 13 13 9 11 7 8 8 11 12 12
3 3 3 1 3 3 2 2 3 2 3 2 2 2 2 2 3 0 1 2 4 4 4 8 1 3 5 6 5 9 2 5 7 8 6 7 7 7 11 12 7 13 13 12 9
5 4 2 1 4 2 4 2 2 1 3 3 2 1 1 3 2 2 1 2 6 4 3 1 3 4 5 4 5 3 1 4 4 7 7 3 4 6 9 12 17 15 18 17 14
5 4 2 2 3 4 3 3 2 3 4 3 2 2 2 1 2 1 2 1 1 3 5 10 0 3 1 1 3 2 5 3 2 3 3 4 2 9 4 9 14 12 14 16 15
5 4 4 4 3 4 5 2 2 4 2 3 2 2 2 2 2 1 2 5 4 4 2 2 1 1 1 3 2 3 6 4 3 3 3 3 4 13 16 8 9 11 13 14 16
5 6 5 5 5 5 3 3 5 1 2 2 1 1 3 0 1 1 2 4 2 3 3 3 1 2 3 2 3 1 3 4 6 7 12 4 7 5 6 13 6 4 9 15 19
6 7 5 3 4 5 3 3 2 2 2 1 2 2 2 1 2 2 3 2 1 7 3 3 3 2 1 0 2 3 3 2 5 2 4 4 6 12 8 5 9 15 20 20 19
5 5 2 3 4 2 3 2 3 3 2 2 2 3 3 2 3 3 2 3 2 2 2 1 5 1 1 2 2 3 2 3 3 5 6 5 6 10 12 14 17 17 23 22 19
3 3 2 4 5 2 4 5 4 4 4 4 3 3 4 3 4 3 2 2 2 3 4 3 3 2 2 6 3 3 3 4 4 4 5 9 4 5 13 17 11 17 19 18 17
3 2 0 8 3 1 4 4 1 3 3 4 2 5 6 5 4 4 5 3 2 3 2 1 2 5 8 3 2 2 4 7 4 6 8 13 13 17 14 5 13 15 12 13 13
2 1 2 3 5 5 1 2 3 4 4 5 5 6 4 5 4 5 3 2 3 4 3 5 3 6 4 3 2 5 5 6 7 4 18 15 12 4 8 18 15 15 13 14 13
2 3 2 1 1 1 4 4 4 1 3 3 1 2 3 4 5 2 3 2 2 2 2 4 4 12 14 15 10 13 11 12 14 12 21 19 31 25 24 21 18 13 14 13 11
0 2 1 4 5 5 4 3 4 4 3 4 3 7 5 5 2 4 3 1 2 1 1 3 9 14 17 18 19 21 22 22 23 26 24 31 27 27 25 21 10 11 15 11 12
2 3 1 2 2 8 6 7 10 5 5 4 5 3 5 5 5 6 2 3 6 3 3 2 6 6 17 18 18 23 23 25 28 28 29 29 29 22 8 7 11 16 14 11 12
1 1 2 3 4 5 5 5 6 4 2 1 3 3 4 5 4 4 5 8 11 10 10 6 7 11 20 11 12 17 21 20 17 16 14 16 17 12 12 14 16 18 13 16 22
Wind_Direction
245 223 228 236 245 231 211 223 50 336 353 359 359 359 355 22 139 129 82 12 337 310 336 143 158 143 114 95 60 219 252 262 269 264 280 166 212 184 291 230 209 200 260 85 147
238 221 226 215 206 195 218 257 336 348 353 348 357 351 349 90 154 106 79 6 351 303 186 216 216 181 180 133 177 239 261 279 287 282 274 220 229 229 219 214 227 226 202 154 161
226 208 214 199 174 193 225 275 335 354 356 343 340 348 345 97 200 108 35 8 9 13 165 162 148 232 230 219 193 201 261 309 267 261 259 252 238 224 237 242 238 230 215 187 182
207 203 191 186 188 196 230 288 332 358 354 336 335 345 335 281 261 148 11 8 9 337 122 144 204 227 237 233 182 253 258 256 289 225 240 250 276 240 232 246 301 250 249 188 195
202 198 177 191 200 207 250 292 333 347 350 323 334 347 6 253 66 179 347 4 19 7 77 229 238 246 251 220 219 241 282 251 260 256 252 263 254 265 262 248 247 241 193 197 207
195 191 186 200 209 221 248 301 321 333 328 306 327 346 243 277 175 188 16 177 50 70 95 131 258 194 274 239 246 317 274 274 267 255 248 252 269 280 253 255 235 225 219 212 214
193 191 195 205 220 235 255 300 307 313 295 279 310 324 234 304 185 197 125 159 72 100 168 113 129 227 149 231 218 284 291 278 238 232 248 262 264 236 264 228 248 233 233 227 222
189 200 205 226 239 255 270 291 297 292 270 253 268 245 273 221 205 206 181 149 115 105 94 105 108 104 326 136 226 266 257 299 135 177 152 229 284 278 283 233 250 249 240 231 227
196 202 226 245 256 258 284 297 294 260 234 233 229 232 256 214 210 199 188 194 125 106 91 110 88 66 181 258 264 223 298 297 305 207 244 224 291 289 251 240 254 252 244 236 236
198 221 242 253 265 283 308 297 246 205 161 136 147 230 170 193 174 174 185 169 178 142 156 213 200 242 221 240 289 297 295 292 283 280 231 265 270 283 278 265 261 267 260 249 241
232 247 261 274 294 317 298 167 205 194 204 236 175 309 119 163 217 183 171 164 184 209 241 145 249 252 288 264 284 277 276 280 288 299 275 271 279 286 291 281 272 268 266 260 250
249 259 282 306 306 295 242 158 76 51 273 40 241 262 217 229 254 190 181 219 207 237 166 225 256 291 294 238 237 249 276 285 296 168 249 296 293 288 293 292 289 285 277 276 274
259 293 310 294 233 160 99 120 156 150 261 243 215 215 166 190 246 199 209 180 239 241 233 258 311 93 225 240 241 254 257 293 293 314 254 303 277 301 319 306 327 307 289 287 277
276 268 301 300 169 149 80 129 173 128 260 173 167 123 143 181 239 99 189 260 211 263 233 260 81 227 225 257 224 281 332 274 290 316 310 8 295 299 326 338 26 14 11 3 351
248 250 281 190 146 155 173 150 136 182 274 94 133 88 144 231 12 149 27 192 252 232 213 315 217 230 259 278 196 320 317 283 284 282 306 167 251 279 318 352 3 19 37 20 10
250 237 265 178 134 157 149 133 194 213 234 158 145 174 197 182 192 128 198 135 6 254 234 269 1 251 301 79 224 330 271 244 223 241 235 109 306 288 319 345 338 357 6 15 20
239 213 215 184 170 151 144 198 212 235 122 163 182 193 234 211 195 227 224 213 247 270 259 247 189 99 261 253 174 246 283 299 252 237 331 131 262 259 293 318 315 334 343 4 356
196 187 178 171 156 147 186 202 225 88 228 55 66 110 262 25 151 220 249 260 196 238 281 317 193 192 153 277 322 315 313 310 301 301 305 130 238 252 294 298 301 326 347 349 353
162 161 167 158 161 168 224 215 269 187 96 145 169 224 193 167 257 264 229 264 228 200 252 272 245 121 307 314 295 123 233 17 280 238 257 226 248 278 288 302 341 2 357 349 342
176 147 142 175 158 165 206 253 232 199 162 197 235 207 232 180 236 240 243 137 184 224 261 167 286 140 105 191 104 275 121 253 200 278 276 251 268 253 290 319 341 356 343 341 338
164 171 179 163 142 193 218 224 234 217 204 206 230 223 229 232 241 238 262 164 193 147 209 189 248 168 223 210 243 160 215 211 283 248 280 300 249 255 285 312 353 342 344 338 346
121 215 322 158 169 235 204 204 159 208 166 224 245 239 222 197 227 242 245 266 162 167 205 128 275 268 276 84 4 283 271 231 255 254 241 278 284 265 272 304 340 342 348 352 354
143 109 12 170 207 206 187 250 236 194 204 190 217 219 197 210 229 224 221 115 161 187 189 173 208 290 243 144 153 233 199 233 272 273 264 274 269 250 262 297 321 327 331 344 343
171 185 140 136 1 201 178 222 216 211 238 200 174 143 174 221 222 252 233 178 171 237 102 182 249 245 266 287 299 262 239 235 255 275 275 256 279 284 294 313 332 324 336 337 340
333 198 354 187 209 191 199 165 191 216 213 205 203 226 201 226 220 234 258 288 177 121 120 254 265 267 268 274 275 272 272 268 256 258 266 281 281 294 300 322 322 329 324 323 333
192 191 134 119 136 178 186 206 217 202 194 193 224 140 197 226 247 281 221 233 266 148 201 181 276 298 277 276 271 278 276 268 263 266 267 273 285 298 348 359 329 329 331 318 324
149 116 268 131 167 194 201 195 201 187 124 40 168 161 218 262 286 310 271 274 269 263 255 251 276 282 285 299 309 284 259 250 252 261 258 268 287 351 344 340 332 323 329 331 322